GFSNE_prec_precacc12_342.txt.gz
Total_Precipitation_Accumulation
0.00 0.00 0.00 0.00 0.00 0.00 0.00 0.00 0.00 0.00 0.00 0.00 0.00 0.00 0.00 0.00 0.00 0.00 0.00 0.00 0.00 0.00 0.00 0.00 0.00 0.00 0.00 0.00 0.00 0.01 0.02 0.03 0.02 0.03 0.03 0.03 0.02 0.01
0.00 0.00 0.00 0.00 0.00 0.00 0.00 0.00 0.00 0.00 0.00 0.00 0.00 0.00 0.00 0.00 0.00 0.00 0.00 0.00 0.00 0.00 0.00 0.00 0.00 0.00 0.00 0.00 0.01 0.01 0.02 0.02 0.02 0.02 0.03 0.02 0.01 0.00
0.00 0.00 0.00 0.00 0.00 0.00 0.00 0.00 0.00 0.00 0.00 0.00 0.00 0.00 0.00 0.00 0.00 0.00 0.00 0.00 0.00 0.00 0.00 0.00 0.00 0.00 0.00 0.00 0.01 0.01 0.03 0.01 0.02 0.02 0.02 0.01 0.01 0.00
0.00 0.00 0.00 0.00 0.00 0.00 0.00 0.00 0.00 0.00 0.00 0.00 0.00 0.00 0.00 0.00 0.00 0.00 0.00 0.00 0.00 0.00 0.00 0.00 0.00 0.00 0.00 0.00 0.01 0.01 0.02 0.01 0.02 0.01 0.01 0.01 0.01 0.00
0.00 0.00 0.00 0.00 0.00 0.00 0.00 0.00 0.00 0.00 0.00 0.00 0.00 0.00 0.00 0.00 0.00 0.00 0.00 0.00 0.00 0.00 0.00 0.00 0.00 0.00 0.00 0.00 0.00 0.00 0.01 0.02 0.01 0.01 0.02 0.01 0.00 0.00
0.00 0.00 0.00 0.00 0.00 0.00 0.00 0.00 0.00 0.00 0.00 0.00 0.00 0.00 0.00 0.00 0.00 0.00 0.00 0.00 0.00 0.00 0.00 0.00 0.00 0.00 0.00 0.00 0.00 0.00 0.00 0.02 0.01 0.01 0.02 0.01 0.00 0.00
0.00 0.00 0.00 0.00 0.00 0.00 0.00 0.00 0.00 0.00 0.00 0.00 0.00 0.00 0.00 0.01 0.01 0.01 0.01 0.01 0.01 0.01 0.02 0.01 0.00 0.00 0.00 0.00 0.00 0.00 0.01 0.02 0.01 0.01 0.01 0.01 0.00 0.00
0.00 0.00 0.00 0.00 0.00 0.00 0.00 0.00 0.00 0.00 0.00 0.00 0.00 0.01 0.03 0.04 0.03 0.03 0.05 0.05 0.05 0.03 0.02 0.01 0.00 0.00 0.00 0.00 0.00 0.00 0.00 0.01 0.01 0.02 0.01 0.01 0.00 0.00
0.01 0.01 0.01 0.00 0.01 0.01 0.02 0.02 0.01 0.01 0.01 0.03 0.05 0.06 0.06 0.07 0.10 0.10 0.09 0.08 0.05 0.02 0.01 0.01 0.00 0.00 0.00 0.00 0.00 0.00 0.00 0.00 0.01 0.02 0.01 0.00 0.00 0.00
0.03 0.04 0.05 0.05 0.08 0.10 0.09 0.06 0.05 0.07 0.12 0.11 0.09 0.10 0.10 0.10 0.09 0.07 0.06 0.06 0.05 0.04 0.02 0.01 0.00 0.00 0.00 0.00 0.00 0.00 0.00 0.00 0.01 0.02 0.00 0.00 0.00 0.00
0.03 0.08 0.13 0.11 0.16 0.19 0.14 0.12 0.16 0.18 0.21 0.24 0.18 0.12 0.09 0.08 0.07 0.08 0.09 0.07 0.06 0.02 0.01 0.01 0.00 0.00 0.00 0.00 0.00 0.00 0.00 0.00 0.01 0.01 0.00 0.00 0.00 0.00
0.02 0.03 0.16 0.11 0.15 0.17 0.15 0.13 0.16 0.16 0.19 0.22 0.21 0.16 0.12 0.11 0.10 0.04 0.01 0.02 0.04 0.05 0.01 0.01 0.01 0.00 0.00 0.00 0.00 0.00 0.00 0.00 0.00 0.00 0.00 0.00 0.00 0.00
0.06 0.07 0.09 0.21 0.18 0.18 0.18 0.14 0.17 0.23 0.23 0.18 0.12 0.09 0.07 0.05 0.04 0.04 0.04 0.06 0.05 0.03 0.01 0.01 0.01 0.01 0.01 0.00 0.00 0.00 0.00 0.00 0.00 0.00 0.00 0.00 0.00 0.00
0.06 0.07 0.10 0.25 0.19 0.17 0.17 0.16 0.21 0.18 0.14 0.11 0.07 0.06 0.06 0.06 0.07 0.06 0.06 0.05 0.04 0.02 0.01 0.01 0.01 0.01 0.01 0.01 0.00 0.00 0.00 0.00 0.00 0.00 0.00 0.00 0.00 0.00
0.01 0.04 0.11 0.18 0.15 0.13 0.11 0.12 0.12 0.07 0.05 0.04 0.04 0.04 0.04 0.04 0.04 0.05 0.06 0.06 0.05 0.02 0.01 0.02 0.02 0.01 0.01 0.02 0.01 0.00 0.00 0.00 0.00 0.00 0.00 0.00 0.00 0.00
0.01 0.04 0.07 0.09 0.09 0.08 0.12 0.10 0.06 0.03 0.03 0.02 0.03 0.05 0.07 0.07 0.06 0.05 0.06 0.07 0.07 0.07 0.06 0.04 0.03 0.02 0.01 0.01 0.01 0.00 0.00 0.01 0.00 0.00 0.00 0.00 0.00 0.00
0.07 0.05 0.10 0.08 0.08 0.07 0.07 0.07 0.05 0.06 0.07 0.06 0.07 0.08 0.07 0.08 0.09 0.11 0.12 0.12 0.10 0.10 0.09 0.06 0.04 0.02 0.01 0.00 0.00 0.00 0.01 0.01 0.00 0.00 0.00 0.00 0.00 0.00
0.08 0.03 0.02 0.02 0.03 0.03 0.05 0.07 0.07 0.09 0.08 0.07 0.08 0.09 0.11 0.14 0.17 0.19 0.16 0.13 0.10 0.09 0.06 0.04 0.03 0.02 0.01 0.00 0.00 0.00 0.00 0.00 0.00 0.00 0.00 0.01 0.00 0.00
0.05 0.02 0.01 0.01 0.02 0.03 0.05 0.07 0.10 0.14 0.15 0.16 0.15 0.16 0.18 0.21 0.22 0.18 0.15 0.13 0.10 0.07 0.05 0.03 0.03 0.02 0.01 0.00 0.00 0.00 0.00 0.00 0.00 0.00 0.00 0.01 0.01 0.00
0.03 0.01 0.01 0.01 0.03 0.06 0.10 0.15 0.22 0.24 0.23 0.21 0.21 0.22 0.22 0.20 0.17 0.14 0.11 0.08 0.07 0.06 0.04 0.03 0.02 0.02 0.02 0.01 0.01 0.00 0.00 0.00 0.00 0.00 0.00 0.00 0.00 0.00
0.01 0.01 0.02 0.03 0.06 0.11 0.16 0.21 0.23 0.22 0.23 0.23 0.22 0.19 0.17 0.16 0.11 0.09 0.08 0.08 0.07 0.05 0.03 0.02 0.01 0.01 0.01 0.01 0.01 0.00 0.00 0.00 0.01 0.02 0.02 0.01 0.00 0.00
0.03 0.05 0.08 0.11 0.16 0.20 0.23 0.26 0.27 0.27 0.23 0.18 0.16 0.14 0.13 0.12 0.09 0.08 0.09 0.08 0.05 0.04 0.04 0.03 0.01 0.01 0.01 0.01 0.00 0.00 0.00 0.00 0.00 0.00 0.01 0.02 0.01 0.01
0.10 0.13 0.16 0.20 0.23 0.25 0.25 0.24 0.22 0.20 0.15 0.14 0.14 0.12 0.12 0.12 0.09 0.09 0.09 0.07 0.06 0.05 0.04 0.03 0.02 0.01 0.02 0.01 0.01 0.00 0.00 0.00 0.00 0.00 0.00 0.00 0.01 0.01

GFSNE_prec_precacc12_348.txt.gz
Total_Precipitation_Accumulation
0.00 0.00 0.00 0.00 0.00 0.00 0.00 0.00 0.00 0.00 0.00 0.00 0.00 0.00 0.00 0.00 0.00 0.00 0.00 0.00 0.00 0.00 0.00 0.00 0.00 0.00 0.00 0.00 0.00 0.00 0.00 0.01 0.01 0.01 0.02 0.02 0.02 0.02
0.00 0.00 0.00 0.00 0.00 0.00 0.00 0.00 0.00 0.00 0.00 0.00 0.00 0.00 0.00 0.00 0.00 0.00 0.00 0.00 0.00 0.00 0.00 0.00 0.00 0.00 0.00 0.00 0.00 0.00 0.00 0.00 0.00 0.01 0.02 0.02 0.02 0.01
0.00 0.00 0.00 0.00 0.00 0.00 0.00 0.00 0.00 0.00 0.00 0.00 0.00 0.00 0.00 0.00 0.00 0.00 0.00 0.00 0.00 0.00 0.00 0.00 0.00 0.00 0.00 0.00 0.00 0.00 0.00 0.00 0.01 0.01 0.01 0.01 0.01 0.02
0.00 0.00 0.00 0.00 0.00 0.00 0.00 0.00 0.00 0.00 0.00 0.00 0.00 0.00 0.00 0.00 0.00 0.00 0.00 0.00 0.00 0.00 0.00 0.00 0.00 0.00 0.00 0.00 0.00 0.00 0.00 0.00 0.01 0.00 0.01 0.01 0.01 0.01
0.02 0.02 0.01 0.00 0.01 0.00 0.00 0.00 0.00 0.00 0.00 0.00 0.00 0.00 0.00 0.00 0.00 0.00 0.00 0.00 0.00 0.00 0.00 0.00 0.00 0.00 0.00 0.00 0.00 0.00 0.00 0.00 0.01 0.00 0.01 0.01 0.01 0.01
0.01 0.02 0.01 0.00 0.01 0.00 0.00 0.00 0.00 0.00 0.00 0.00 0.00 0.00 0.00 0.00 0.00 0.00 0.00 0.00 0.00 0.00 0.00 0.00 0.00 0.01 0.01 0.01 0.00 0.00 0.00 0.00 0.00 0.01 0.01 0.01 0.01 0.00
0.00 0.00 0.00 0.00 0.00 0.00 0.01 0.00 0.00 0.00 0.00 0.00 0.00 0.00 0.00 0.00 0.00 0.00 0.00 0.01 0.01 0.01 0.02 0.01 0.01 0.01 0.01 0.01 0.00 0.00 0.00 0.00 0.00 0.00 0.01 0.01 0.01 0.00
0.03 0.01 0.01 0.02 0.02 0.04 0.03 0.02 0.02 0.01 0.00 0.00 0.00 0.00 0.00 0.02 0.02 0.02 0.05 0.07 0.10 0.05 0.04 0.03 0.03 0.03 0.01 0.00 0.00 0.00 0.00 0.00 0.00 0.01 0.01 0.01 0.00 0.00
0.01 0.02 0.02 0.02 0.08 0.07 0.08 0.10 0.09 0.10 0.07 0.05 0.02 0.02 0.05 0.07 0.14 0.15 0.17 0.19 0.14 0.08 0.05 0.03 0.01 0.02 0.02 0.02 0.01 0.00 0.00 0.00 0.00 0.01 0.00 0.00 0.00 0.00
0.02 0.04 0.05 0.05 0.11 0.16 0.12 0.08 0.07 0.10 0.19 0.25 0.19 0.16 0.20 0.23 0.20 0.20 0.19 0.16 0.12 0.07 0.07 0.09 0.05 0.03 0.02 0.01 0.01 0.01 0.00 0.00 0.00 0.00 0.00 0.00 0.00 0.00
0.05 0.06 0.11 0.07 0.21 0.33 0.23 0.11 0.10 0.08 0.17 0.25 0.19 0.18 0.21 0.21 0.18 0.16 0.16 0.15 0.13 0.07 0.04 0.06 0.05 0.04 0.02 0.01 0.00 0.01 0.00 0.00 0.00 0.00 0.00 0.00 0.00 0.00
0.03 0.04 0.14 0.08 0.10 0.15 0.14 0.07 0.09 0.07 0.08 0.11 0.13 0.14 0.12 0.10 0.12 0.05 0.02 0.04 0.09 0.12 0.08 0.09 0.06 0.04 0.05 0.02 0.00 0.00 0.00 0.00 0.00 0.00 0.00 0.00 0.00 0.00
0.00 0.01 0.01 0.06 0.05 0.06 0.08 0.05 0.07 0.10 0.10 0.08 0.05 0.03 0.02 0.03 0.05 0.06 0.05 0.08 0.12 0.13 0.11 0.09 0.05 0.02 0.01 0.00 0.00 0.00 0.00 0.00 0.00 0.00 0.00 0.00 0.00 0.00
0.00 0.00 0.00 0.04 0.03 0.03 0.04 0.03 0.06 0.05 0.03 0.02 0.01 0.01 0.03 0.05 0.06 0.06 0.06 0.06 0.06 0.04 0.02 0.03 0.01 0.01 0.02 0.02 0.01 0.00 0.00 0.00 0.00 0.00 0.00 0.00 0.00 0.00
0.00 0.00 0.01 0.02 0.02 0.02 0.02 0.02 0.03 0.01 0.00 0.00 0.00 0.01 0.01 0.02 0.03 0.03 0.05 0.06 0.06 0.04 0.03 0.03 0.03 0.02 0.02 0.01 0.01 0.00 0.01 0.00 0.00 0.00 0.00 0.00 0.00 0.00
0.00 0.01 0.02 0.01 0.01 0.01 0.02 0.02 0.01 0.00 0.01 0.00 0.00 0.00 0.02 0.03 0.03 0.03 0.05 0.08 0.10 0.12 0.10 0.08 0.08 0.06 0.06 0.04 0.01 0.01 0.00 0.00 0.00 0.00 0.00 0.00 0.00 0.00
0.01 0.00 0.01 0.00 0.00 0.00 0.00 0.00 0.00 0.01 0.01 0.00 0.00 0.01 0.03 0.04 0.06 0.09 0.14 0.17 0.16 0.16 0.18 0.19 0.17 0.14 0.08 0.03 0.02 0.01 0.00 0.00 0.00 0.00 0.00 0.00 0.00 0.00
0.01 0.00 0.00 0.00 0.00 0.00 0.00 0.00 0.00 0.03 0.01 0.01 0.02 0.03 0.05 0.08 0.16 0.24 0.25 0.22 0.19 0.18 0.16 0.14 0.15 0.15 0.09 0.05 0.02 0.01 0.01 0.00 0.00 0.00 0.00 0.00 0.00 0.00
0.02 0.00 0.00 0.00 0.00 0.00 0.00 0.00 0.01 0.01 0.02 0.03 0.05 0.08 0.12 0.20 0.34 0.27 0.22 0.21 0.20 0.16 0.14 0.11 0.13 0.08 0.06 0.04 0.02 0.02 0.01 0.01 0.00 0.00 0.00 0.00 0.00 0.00
0.01 0.00 0.00 0.00 0.00 0.01 0.01 0.02 0.04 0.05 0.07 0.10 0.13 0.16 0.20 0.23 0.24 0.20 0.18 0.16 0.16 0.15 0.14 0.11 0.11 0.07 0.04 0.03 0.03 0.02 0.01 0.01 0.00 0.00 0.00 0.00 0.00 0.00
0.00 0.00 0.01 0.01 0.01 0.02 0.03 0.05 0.07 0.09 0.14 0.16 0.17 0.18 0.18 0.20 0.18 0.15 0.15 0.16 0.17 0.13 0.09 0.07 0.06 0.08 0.07 0.04 0.03 0.01 0.00 0.00 0.00 0.00 0.00 0.01 0.01 0.00
0.01 0.02 0.02 0.02 0.03 0.05 0.07 0.09 0.11 0.15 0.16 0.15 0.14 0.14 0.15 0.16 0.14 0.13 0.15 0.17 0.16 0.09 0.09 0.10 0.14 0.10 0.06 0.04 0.02 0.02 0.01 0.00 0.00 0.00 0.00 0.01 0.01 0.01
0.01 0.02 0.02 0.02 0.03 0.04 0.06 0.08 0.10 0.12 0.09 0.10 0.12 0.12 0.14 0.17 0.14 0.15 0.15 0.16 0.14 0.12 0.09 0.11 0.14 0.09 0.08 0.05 0.03 0.02 0.01 0.01 0.00 0.00 0.00 0.00 0.00 0.01

GFSNE_prec_precacc12_351.txt.gz
Total_Precipitation_Accumulation
0.00 0.00 0.00 0.00 0.00 0.00 0.00 0.00 0.00 0.00 0.00 0.00 0.00 0.00 0.00 0.00 0.00 0.00 0.00 0.00 0.00 0.00 0.00 0.00 0.00 0.00 0.00 0.00 0.00 0.00 0.00 0.00 0.00 0.00 0.01 0.02 0.02 0.02
0.00 0.00 0.00 0.00 0.00 0.00 0.00 0.00 0.00 0.00 0.00 0.00 0.00 0.00 0.00 0.00 0.00 0.00 0.00 0.00 0.00 0.00 0.00 0.00 0.00 0.00 0.00 0.00 0.00 0.00 0.00 0.00 0.00 0.00 0.01 0.01 0.02 0.02
0.00 0.00 0.00 0.00 0.00 0.00 0.00 0.00 0.00 0.00 0.00 0.00 0.00 0.00 0.00 0.00 0.00 0.00 0.00 0.00 0.00 0.00 0.00 0.00 0.00 0.00 0.00 0.00 0.00 0.00 0.00 0.00 0.00 0.00 0.01 0.01 0.01 0.02
0.00 0.00 0.00 0.00 0.00 0.00 0.00 0.00 0.00 0.00 0.00 0.00 0.00 0.00 0.00 0.00 0.00 0.00 0.00 0.00 0.00 0.00 0.00 0.00 0.00 0.00 0.00 0.00 0.00 0.00 0.00 0.00 0.00 0.00 0.00 0.01 0.01 0.02
0.02 0.02 0.01 0.01 0.01 0.01 0.00 0.00 0.01 0.00 0.00 0.00 0.00 0.00 0.00 0.00 0.00 0.00 0.00 0.00 0.00 0.00 0.00 0.00 0.00 0.00 0.00 0.00 0.01 0.01 0.00 0.00 0.00 0.00 0.00 0.01 0.01 0.01
0.03 0.03 0.03 0.01 0.01 0.01 0.01 0.00 0.00 0.00 0.00 0.00 0.01 0.00 0.00 0.00 0.00 0.00 0.00 0.00 0.00 0.00 0.00 0.00 0.01 0.02 0.03 0.03 0.02 0.01 0.01 0.01 0.01 0.01 0.00 0.00 0.01 0.00
0.01 0.01 0.01 0.01 0.01 0.01 0.02 0.00 0.00 0.00 0.01 0.01 0.01 0.01 0.00 0.00 0.00 0.00 0.00 0.00 0.00 0.01 0.01 0.02 0.02 0.03 0.03 0.04 0.03 0.03 0.02 0.02 0.02 0.01 0.01 0.01 0.01 0.00
0.07 0.05 0.03 0.05 0.04 0.10 0.07 0.04 0.04 0.02 0.02 0.02 0.02 0.02 0.00 0.00 0.00 0.01 0.03 0.06 0.10 0.05 0.06 0.05 0.05 0.04 0.02 0.01 0.03 0.03 0.01 0.01 0.01 0.02 0.01 0.01 0.00 0.00
0.04 0.06 0.07 0.08 0.16 0.10 0.13 0.17 0.15 0.18 0.16 0.14 0.04 0.01 0.03 0.07 0.15 0.17 0.16 0.19 0.18 0.13 0.08 0.04 0.01 0.02 0.03 0.03 0.04 0.02 0.02 0.02 0.01 0.01 0.01 0.00 0.01 0.00
0.03 0.05 0.08 0.08 0.17 0.25 0.16 0.10 0.11 0.15 0.28 0.39 0.32 0.32 0.39 0.37 0.29 0.24 0.21 0.17 0.12 0.07 0.07 0.10 0.05 0.03 0.02 0.02 0.04 0.03 0.02 0.01 0.02 0.03 0.02 0.00 0.00 0.00
0.14 0.17 0.25 0.24 0.45 0.57 0.43 0.28 0.29 0.27 0.39 0.46 0.37 0.38 0.38 0.36 0.36 0.31 0.25 0.18 0.15 0.08 0.04 0.08 0.05 0.04 0.03 0.01 0.01 0.03 0.03 0.03 0.01 0.00 0.01 0.01 0.00 0.00
0.03 0.04 0.15 0.10 0.13 0.17 0.16 0.10 0.10 0.08 0.09 0.12 0.14 0.15 0.13 0.09 0.12 0.06 0.02 0.04 0.10 0.14 0.09 0.09 0.06 0.04 0.05 0.02 0.01 0.00 0.00 0.01 0.01 0.00 0.00 0.00 0.00 0.00
0.00 0.01 0.01 0.03 0.03 0.05 0.05 0.03 0.03 0.03 0.04 0.03 0.01 0.00 0.01 0.01 0.02 0.04 0.05 0.08 0.12 0.12 0.12 0.11 0.04 0.02 0.01 0.00 0.00 0.00 0.00 0.00 0.01 0.00 0.01 0.01 0.01 0.00
0.00 0.00 0.00 0.01 0.01 0.01 0.02 0.01 0.02 0.03 0.01 0.01 0.00 0.00 0.01 0.02 0.03 0.04 0.06 0.06 0.04 0.02 0.03 0.05 0.01 0.01 0.02 0.02 0.01 0.00 0.00 0.00 0.02 0.03 0.03 0.01 0.00 0.00
0.00 0.00 0.00 0.01 0.01 0.01 0.01 0.01 0.02 0.01 0.00 0.00 0.00 0.00 0.00 0.00 0.01 0.02 0.03 0.03 0.03 0.03 0.05 0.03 0.03 0.02 0.02 0.02 0.02 0.03 0.07 0.06 0.06 0.05 0.02 0.01 0.00 0.00
0.00 0.01 0.01 0.01 0.01 0.00 0.01 0.01 0.00 0.00 0.01 0.00 0.00 0.00 0.00 0.00 0.01 0.01 0.03 0.04 0.06 0.09 0.09 0.08 0.10 0.08 0.11 0.11 0.10 0.12 0.09 0.09 0.07 0.06 0.03 0.02 0.01 0.00
0.01 0.00 0.00 0.00 0.00 0.00 0.00 0.00 0.00 0.00 0.01 0.00 0.00 0.00 0.00 0.01 0.03 0.05 0.07 0.09 0.12 0.12 0.17 0.22 0.23 0.22 0.18 0.13 0.12 0.09 0.10 0.09 0.07 0.05 0.04 0.03 0.00 0.00
0.00 0.00 0.00 0.00 0.00 0.00 0.00 0.00 0.00 0.02 0.01 0.00 0.01 0.01 0.02 0.05 0.09 0.13 0.15 0.16 0.16 0.17 0.18 0.17 0.23 0.27 0.21 0.16 0.11 0.11 0.13 0.11 0.08 0.05 0.03 0.02 0.01 0.00
0.00 0.00 0.00 0.00 0.00 0.00 0.00 0.00 0.01 0.01 0.01 0.02 0.02 0.03 0.07 0.12 0.26 0.20 0.17 0.19 0.19 0.16 0.15 0.14 0.17 0.14 0.12 0.09 0.08 0.09 0.09 0.08 0.07 0.06 0.04 0.03 0.01 0.00
0.00 0.00 0.00 0.01 0.01 0.01 0.00 0.01 0.02 0.02 0.03 0.04 0.07 0.09 0.12 0.16 0.19 0.16 0.16 0.16 0.17 0.17 0.16 0.14 0.15 0.10 0.06 0.05 0.06 0.06 0.04 0.04 0.04 0.04 0.03 0.01 0.00 0.00
0.00 0.00 0.01 0.01 0.01 0.01 0.01 0.02 0.03 0.05 0.06 0.09 0.12 0.13 0.14 0.17 0.17 0.13 0.14 0.16 0.19 0.16 0.11 0.07 0.07 0.13 0.15 0.09 0.08 0.04 0.05 0.05 0.03 0.01 0.01 0.03 0.02 0.00
0.01 0.01 0.01 0.01 0.01 0.01 0.02 0.03 0.05 0.07 0.08 0.09 0.10 0.11 0.11 0.13 0.14 0.12 0.14 0.18 0.18 0.11 0.09 0.11 0.18 0.19 0.10 0.07 0.04 0.06 0.06 0.05 0.05 0.01 0.00 0.01 0.01 0.01
0.01 0.01 0.01 0.02 0.01 0.02 0.03 0.05 0.06 0.07 0.06 0.07 0.08 0.08 0.10 0.13 0.11 0.13 0.15 0.16 0.16 0.16 0.11 0.14 0.20 0.14 0.11 0.09 0.07 0.06 0.05 0.04 0.03 0.02 0.01 0.00 0.00 0.00

GFSNE_prec_precacc12_354.txt.gz
Total_Precipitation_Accumulation
0.00 0.00 0.00 0.00 0.00 0.00 0.00 0.00 0.00 0.00 0.00 0.00 0.00 0.00 0.00 0.00 0.00 0.00 0.00 0.00 0.00 0.00 0.00 0.00 0.00 0.00 0.00 0.00 0.00 0.00 0.00 0.00 0.00 0.00 0.00 0.01 0.02 0.02
0.00 0.00 0.00 0.00 0.00 0.00 0.00 0.00 0.00 0.00 0.00 0.00 0.00 0.00 0.00 0.00 0.00 0.00 0.00 0.00 0.00 0.00 0.00 0.00 0.00 0.00 0.00 0.00 0.00 0.00 0.00 0.00 0.00 0.00 0.00 0.01 0.01 0.02
0.00 0.00 0.00 0.00 0.00 0.00 0.00 0.00 0.00 0.00 0.00 0.00 0.00 0.00 0.00 0.00 0.00 0.00 0.00 0.00 0.00 0.00 0.00 0.00 0.00 0.00 0.00 0.00 0.00 0.00 0.00 0.00 0.00 0.00 0.00 0.00 0.01 0.02
0.01 0.00 0.00 0.01 0.00 0.01 0.01 0.00 0.01 0.00 0.01 0.01 0.00 0.00 0.00 0.00 0.00 0.00 0.00 0.00 0.00 0.00 0.00 0.00 0.00 0.00 0.00 0.00 0.00 0.00 0.00 0.01 0.01 0.01 0.01 0.00 0.01 0.01
0.02 0.02 0.01 0.01 0.02 0.01 0.00 0.01 0.01 0.01 0.01 0.01 0.01 0.00 0.00 0.00 0.00 0.00 0.00 0.00 0.00 0.00 0.00 0.00 0.00 0.00 0.00 0.00 0.01 0.02 0.03 0.03 0.01 0.01 0.01 0.01 0.01 0.02
0.06 0.06 0.06 0.06 0.04 0.04 0.03 0.02 0.02 0.02 0.01 0.01 0.02 0.01 0.00 0.00 0.00 0.00 0.00 0.00 0.00 0.00 0.00 0.00 0.00 0.02 0.04 0.04 0.04 0.04 0.06 0.05 0.03 0.02 0.02 0.02 0.01 0.01
0.07 0.04 0.04 0.04 0.03 0.03 0.03 0.02 0.02 0.01 0.02 0.02 0.02 0.02 0.01 0.00 0.01 0.01 0.00 0.00 0.00 0.00 0.00 0.01 0.02 0.03 0.04 0.06 0.07 0.07 0.04 0.02 0.02 0.02 0.02 0.02 0.01 0.01
0.08 0.07 0.06 0.11 0.08 0.15 0.12 0.10 0.12 0.11 0.11 0.09 0.06 0.04 0.02 0.01 0.01 0.01 0.03 0.05 0.08 0.04 0.05 0.05 0.05 0.05 0.03 0.02 0.03 0.03 0.02 0.02 0.02 0.03 0.03 0.02 0.01 0.01
0.03 0.06 0.08 0.11 0.25 0.13 0.19 0.23 0.21 0.31 0.33 0.32 0.22 0.16 0.12 0.15 0.24 0.23 0.17 0.19 0.19 0.16 0.13 0.09 0.03 0.02 0.03 0.03 0.04 0.03 0.03 0.03 0.03 0.03 0.03 0.04 0.04 0.02
0.03 0.06 0.09 0.10 0.22 0.32 0.21 0.21 0.26 0.35 0.54 0.73 0.75 0.68 0.70 0.61 0.57 0.53 0.44 0.31 0.22 0.15 0.12 0.14 0.06 0.03 0.02 0.02 0.05 0.04 0.03 0.02 0.03 0.05 0.05 0.02 0.01 0.01
0.14 0.19 0.28 0.28 0.52 0.67 0.51 0.40 0.39 0.35 0.45 0.54 0.47 0.46 0.49 0.52 0.55 0.49 0.37 0.28 0.19 0.08 0.04 0.08 0.05 0.04 0.03 0.01 0.01 0.05 0.04 0.03 0.02 0.02 0.02 0.02 0.02 0.01
0.03 0.04 0.13 0.09 0.11 0.15 0.14 0.09 0.09 0.07 0.07 0.08 0.10 0.11 0.10 0.09 0.13 0.08 0.03 0.04 0.08 0.10 0.08 0.09 0.05 0.04 0.05 0.02 0.01 0.00 0.00 0.02 0.03 0.02 0.02 0.03 0.02 0.02
0.00 0.01 0.01 0.01 0.02 0.02 0.02 0.02 0.02 0.02 0.02 0.01 0.00 0.00 0.00 0.00 0.01 0.03 0.03 0.04 0.09 0.11 0.14 0.12 0.04 0.01 0.01 0.00 0.00 0.00 0.00 0.01 0.02 0.03 0.05 0.07 0.07 0.08
0.00 0.00 0.00 0.01 0.00 0.00 0.00 0.01 0.01 0.02 0.00 0.00 0.00 0.00 0.00 0.00 0.00 0.01 0.02 0.03 0.03 0.02 0.04 0.07 0.01 0.00 0.01 0.01 0.01 0.01 0.01 0.01 0.04 0.09 0.13 0.13 0.09 0.10
0.00 0.00 0.00 0.00 0.00 0.00 0.00 0.00 0.01 0.00 0.00 0.00 0.00 0.00 0.00 0.00 0.00 0.00 0.01 0.01 0.02 0.03 0.05 0.02 0.02 0.02 0.03 0.05 0.06 0.07 0.12 0.12 0.15 0.17 0.16 0.12 0.10 0.13
0.00 0.00 0.01 0.00 0.00 0.00 0.00 0.00 0.00 0.00 0.01 0.00 0.00 0.00 0.00 0.00 0.00 0.01 0.02 0.03 0.04 0.05 0.05 0.06 0.10 0.12 0.19 0.20 0.17 0.20 0.16 0.17 0.17 0.17 0.16 0.14 0.11 0.09
0.00 0.00 0.00 0.00 0.00 0.00 0.00 0.00 0.00 0.00 0.00 0.00 0.00 0.00 0.00 0.00 0.01 0.02 0.04 0.06 0.08 0.07 0.11 0.17 0.23 0.25 0.22 0.17 0.17 0.14 0.16 0.18 0.16 0.16 0.17 0.15 0.11 0.08
0.00 0.00 0.00 0.00 0.00 0.00 0.00 0.00 0.00 0.01 0.00 0.00 0.00 0.01 0.01 0.02 0.05 0.08 0.10 0.11 0.11 0.11 0.13 0.15 0.23 0.31 0.25 0.19 0.15 0.15 0.21 0.20 0.19 0.16 0.14 0.12 0.10 0.07
0.00 0.00 0.00 0.00 0.00 0.00 0.00 0.00 0.01 0.01 0.01 0.01 0.01 0.01 0.03 0.06 0.19 0.13 0.10 0.12 0.13 0.11 0.12 0.13 0.18 0.16 0.14 0.10 0.09 0.11 0.15 0.16 0.15 0.15 0.12 0.10 0.07 0.05
0.00 0.00 0.01 0.01 0.01 0.01 0.01 0.01 0.01 0.01 0.01 0.01 0.03 0.04 0.06 0.09 0.14 0.11 0.11 0.12 0.12 0.13 0.14 0.13 0.14 0.10 0.07 0.07 0.09 0.09 0.09 0.09 0.09 0.10 0.11 0.09 0.07 0.04
0.00 0.00 0.01 0.01 0.01 0.01 0.01 0.01 0.01 0.03 0.03 0.04 0.06 0.07 0.08 0.12 0.13 0.10 0.11 0.12 0.15 0.14 0.09 0.06 0.05 0.13 0.20 0.13 0.12 0.06 0.09 0.10 0.07 0.06 0.07 0.09 0.07 0.03
0.00 0.01 0.01 0.01 0.01 0.01 0.01 0.01 0.02 0.04 0.04 0.05 0.07 0.08 0.08 0.09 0.11 0.09 0.10 0.13 0.15 0.09 0.07 0.09 0.17 0.22 0.15 0.08 0.06 0.07 0.12 0.12 0.11 0.07 0.04 0.03 0.02 0.02
0.00 0.01 0.01 0.01 0.01 0.01 0.02 0.02 0.03 0.04 0.05 0.05 0.06 0.06 0.07 0.10 0.08 0.09 0.10 0.11 0.12 0.12 0.09 0.12 0.19 0.16 0.12 0.10 0.11 0.08 0.11 0.10 0.08 0.08 0.07 0.04 0.01 0.00

GFSNE_prec_precacc12_357.txt.gz
Total_Precipitation_Accumulation
0.00 0.00 0.00 0.00 0.00 0.00 0.00 0.00 0.00 0.00 0.00 0.00 0.00 0.00 0.00 0.00 0.00 0.00 0.00 0.00 0.00 0.00 0.00 0.00 0.00 0.00 0.00 0.00 0.00 0.00 0.00 0.00 0.00 0.00 0.00 0.00 0.01 0.01
0.00 0.00 0.00 0.00 0.00 0.00 0.00 0.00 0.00 0.00 0.00 0.00 0.00 0.00 0.00 0.00 0.00 0.00 0.00 0.00 0.00 0.00 0.00 0.00 0.00 0.00 0.00 0.00 0.00 0.00 0.00 0.00 0.00 0.00 0.00 0.00 0.01 0.02
0.00 0.00 0.00 0.00 0.00 0.00 0.00 0.00 0.00 0.00 0.01 0.00 0.00 0.00 0.00 0.00 0.00 0.00 0.00 0.00 0.00 0.00 0.00 0.00 0.00 0.00 0.00 0.00 0.00 0.00 0.00 0.00 0.00 0.01 0.02 0.02 0.02 0.03
0.02 0.01 0.00 0.01 0.00 0.01 0.01 0.01 0.01 0.01 0.02 0.02 0.00 0.00 0.00 0.00 0.00 0.00 0.00 0.00 0.00 0.00 0.00 0.00 0.00 0.00 0.00 0.00 0.00 0.00 0.00 0.01 0.03 0.04 0.04 0.03 0.04 0.02
0.01 0.01 0.02 0.03 0.03 0.03 0.02 0.02 0.03 0.03 0.03 0.04 0.03 0.01 0.00 0.00 0.00 0.00 0.00 0.00 0.00 0.00 0.00 0.00 0.00 0.00 0.00 0.00 0.01 0.02 0.04 0.07 0.07 0.07 0.05 0.02 0.02 0.02
0.07 0.07 0.07 0.08 0.05 0.07 0.05 0.03 0.05 0.06 0.06 0.04 0.03 0.02 0.01 0.00 0.00 0.00 0.01 0.01 0.00 0.00 0.00 0.00 0.01 0.02 0.04 0.05 0.05 0.05 0.08 0.10 0.09 0.06 0.03 0.03 0.02 0.01
0.08 0.08 0.08 0.10 0.08 0.06 0.05 0.02 0.02 0.03 0.03 0.03 0.04 0.04 0.03 0.02 0.04 0.06 0.05 0.02 0.01 0.00 0.00 0.01 0.03 0.04 0.04 0.09 0.13 0.16 0.16 0.11 0.07 0.03 0.03 0.03 0.02 0.01
0.10 0.08 0.07 0.14 0.11 0.20 0.16 0.13 0.14 0.13 0.12 0.13 0.12 0.10 0.06 0.05 0.06 0.07 0.06 0.08 0.11 0.04 0.05 0.06 0.06 0.08 0.07 0.08 0.12 0.15 0.12 0.07 0.05 0.04 0.04 0.04 0.04 0.04
0.10 0.10 0.12 0.15 0.30 0.15 0.23 0.26 0.23 0.37 0.41 0.40 0.29 0.24 0.26 0.28 0.36 0.32 0.22 0.18 0.17 0.15 0.14 0.12 0.05 0.06 0.07 0.07 0.08 0.04 0.04 0.04 0.04 0.04 0.05 0.06 0.06 0.05
0.03 0.06 0.09 0.10 0.21 0.31 0.20 0.20 0.24 0.35 0.56 0.77 0.82 0.77 0.75 0.65 0.61 0.53 0.40 0.28 0.20 0.14 0.13 0.18 0.07 0.03 0.02 0.03 0.05 0.04 0.03 0.03 0.04 0.06 0.06 0.05 0.04 0.04
0.14 0.19 0.27 0.28 0.48 0.62 0.46 0.37 0.35 0.33 0.42 0.50 0.45 0.45 0.47 0.49 0.50 0.45 0.32 0.25 0.17 0.08 0.04 0.09 0.04 0.03 0.03 0.01 0.01 0.05 0.04 0.03 0.02 0.02 0.04 0.05 0.05 0.05
0.03 0.04 0.11 0.08 0.09 0.11 0.11 0.09 0.08 0.07 0.07 0.07 0.08 0.09 0.09 0.08 0.11 0.07 0.03 0.03 0.06 0.06 0.02 0.04 0.02 0.02 0.04 0.02 0.01 0.00 0.00 0.03 0.04 0.03 0.04 0.05 0.06 0.06
0.00 0.01 0.01 0.01 0.01 0.01 0.01 0.02 0.02 0.02 0.02 0.01 0.00 0.00 0.00 0.00 0.01 0.02 0.01 0.01 0.02 0.02 0.09 0.08 0.02 0.01 0.02 0.01 0.00 0.00 0.00 0.01 0.03 0.04 0.07 0.11 0.13 0.18
0.00 0.00 0.00 0.00 0.00 0.00 0.00 0.00 0.00 0.00 0.00 0.00 0.00 0.00 0.00 0.00 0.00 0.00 0.00 0.00 0.01 0.01 0.04 0.08 0.02 0.01 0.02 0.03 0.02 0.01 0.01 0.02 0.06 0.13 0.19 0.24 0.25 0.25
0.00 0.00 0.00 0.00 0.00 0.00 0.00 0.00 0.00 0.00 0.00 0.00 0.00 0.00 0.00 0.00 0.00 0.00 0.00 0.00 0.01 0.02 0.04 0.02 0.02 0.03 0.06 0.08 0.08 0.09 0.15 0.14 0.19 0.24 0.24 0.21 0.17 0.19
0.00 0.00 0.00 0.00 0.00 0.00 0.00 0.00 0.00 0.00 0.00 0.00 0.00 0.00 0.00 0.00 0.00 0.00 0.01 0.01 0.02 0.03 0.03 0.04 0.08 0.11 0.19 0.21 0.19 0.21 0.17 0.18 0.18 0.18 0.19 0.20 0.17 0.16
0.00 0.00 0.00 0.00 0.00 0.00 0.00 0.00 0.00 0.00 0.00 0.00 0.00 0.00 0.00 0.01 0.01 0.01 0.01 0.02 0.03 0.03 0.05 0.10 0.16 0.22 0.22 0.19 0.20 0.16 0.18 0.20 0.16 0.18 0.22 0.20 0.16 0.15
0.00 0.00 0.00 0.00 0.00 0.00 0.00 0.00 0.00 0.00 0.00 0.00 0.00 0.01 0.01 0.01 0.02 0.03 0.04 0.06 0.06 0.06 0.07 0.10 0.18 0.27 0.22 0.18 0.16 0.16 0.22 0.21 0.21 0.20 0.18 0.16 0.15 0.13
0.00 0.00 0.00 0.00 0.00 0.00 0.00 0.00 0.01 0.01 0.01 0.01 0.00 0.01 0.01 0.03 0.11 0.07 0.06 0.07 0.07 0.06 0.06 0.09 0.15 0.16 0.14 0.09 0.08 0.11 0.16 0.17 0.18 0.19 0.15 0.13 0.10 0.09
0.00 0.00 0.00 0.00 0.00 0.00 0.01 0.01 0.01 0.01 0.00 0.00 0.01 0.02 0.03 0.05 0.08 0.08 0.07 0.08 0.08 0.08 0.09 0.09 0.12 0.09 0.09 0.07 0.10 0.09 0.09 0.10 0.12 0.12 0.13 0.13 0.11 0.08
0.00 0.00 0.00 0.00 0.00 0.00 0.00 0.01 0.01 0.01 0.02 0.02 0.03 0.04 0.04 0.07 0.08 0.07 0.07 0.08 0.10 0.11 0.08 0.04 0.02 0.10 0.21 0.16 0.14 0.06 0.09 0.12 0.11 0.08 0.10 0.14 0.10 0.06
0.00 0.00 0.00 0.00 0.00 0.01 0.01 0.01 0.01 0.02 0.02 0.03 0.04 0.05 0.04 0.05 0.07 0.07 0.06 0.08 0.09 0.07 0.05 0.05 0.11 0.20 0.17 0.09 0.06 0.08 0.13 0.15 0.17 0.11 0.07 0.06 0.03 0.02
0.00 0.00 0.00 0.00 0.00 0.01 0.01 0.01 0.02 0.02 0.02 0.02 0.03 0.04 0.05 0.07 0.04 0.06 0.05 0.06 0.09 0.09 0.06 0.09 0.14 0.13 0.11 0.10 0.13 0.09 0.12 0.13 0.12 0.13 0.13 0.08 0.02 0.01

GFSNE_prec_precacc12_360.txt.gz
Total_Precipitation_Accumulation
0.00 0.00 0.00 0.00 0.00 0.00 0.00 0.00 0.00 0.00 0.00 0.00 0.00 0.00 0.00 0.00 0.00 0.00 0.00 0.00 0.00 0.00 0.00 0.00 0.00 0.00 0.00 0.00 0.00 0.00 0.00 0.00 0.00 0.00 0.00 0.00 0.00 0.01
0.00 0.00 0.00 0.00 0.00 0.00 0.00 0.00 0.00 0.00 0.01 0.00 0.00 0.00 0.00 0.00 0.00 0.00 0.00 0.00 0.00 0.00 0.00 0.00 0.00 0.00 0.00 0.00 0.00 0.00 0.00 0.00 0.00 0.00 0.00 0.00 0.01 0.03
0.00 0.00 0.00 0.00 0.00 0.00 0.00 0.00 0.00 0.00 0.02 0.01 0.00 0.00 0.00 0.00 0.00 0.00 0.00 0.00 0.00 0.00 0.00 0.00 0.00 0.00 0.00 0.00 0.00 0.00 0.00 0.00 0.01 0.01 0.02 0.03 0.04 0.08
0.01 0.01 0.00 0.01 0.00 0.01 0.01 0.01 0.02 0.02 0.03 0.03 0.01 0.00 0.00 0.00 0.00 0.00 0.00 0.00 0.00 0.00 0.00 0.00 0.00 0.00 0.00 0.00 0.01 0.02 0.02 0.03 0.04 0.05 0.06 0.10 0.15 0.15
0.01 0.01 0.02 0.04 0.02 0.05 0.04 0.03 0.04 0.06 0.07 0.07 0.05 0.02 0.00 0.00 0.00 0.00 0.00 0.00 0.00 0.00 0.00 0.00 0.00 0.00 0.01 0.02 0.03 0.04 0.05 0.08 0.10 0.15 0.19 0.19 0.14 0.12
0.14 0.11 0.11 0.11 0.06 0.07 0.05 0.04 0.07 0.08 0.07 0.05 0.04 0.04 0.02 0.00 0.00 0.00 0.01 0.01 0.01 0.00 0.00 0.00 0.01 0.02 0.04 0.05 0.06 0.07 0.11 0.16 0.20 0.22 0.21 0.18 0.15 0.13
0.13 0.10 0.11 0.14 0.11 0.08 0.06 0.02 0.03 0.03 0.04 0.04 0.06 0.07 0.05 0.05 0.07 0.08 0.06 0.03 0.01 0.00 0.00 0.01 0.03 0.05 0.04 0.08 0.14 0.21 0.24 0.21 0.17 0.16 0.15 0.13 0.11 0.08
0.21 0.16 0.13 0.21 0.18 0.24 0.18 0.18 0.19 0.18 0.16 0.18 0.13 0.11 0.08 0.08 0.10 0.12 0.12 0.10 0.11 0.04 0.04 0.04 0.03 0.05 0.06 0.08 0.12 0.16 0.13 0.11 0.11 0.10 0.07 0.07 0.07 0.07
0.13 0.16 0.19 0.23 0.34 0.14 0.24 0.28 0.24 0.37 0.42 0.39 0.29 0.24 0.26 0.28 0.35 0.31 0.22 0.19 0.16 0.13 0.12 0.11 0.04 0.04 0.04 0.05 0.07 0.07 0.07 0.06 0.05 0.05 0.05 0.07 0.08 0.07
0.04 0.06 0.08 0.08 0.16 0.23 0.15 0.17 0.21 0.30 0.47 0.62 0.68 0.66 0.65 0.54 0.54 0.48 0.36 0.25 0.19 0.12 0.10 0.11 0.02 0.00 0.01 0.02 0.04 0.03 0.02 0.03 0.04 0.06 0.07 0.06 0.05 0.05
0.10 0.14 0.20 0.23 0.36 0.44 0.34 0.32 0.32 0.30 0.35 0.40 0.38 0.36 0.37 0.39 0.44 0.42 0.31 0.23 0.15 0.05 0.02 0.05 0.02 0.01 0.01 0.00 0.01 0.04 0.04 0.03 0.02 0.02 0.04 0.05 0.07 0.07
0.00 0.01 0.04 0.04 0.05 0.06 0.07 0.07 0.07 0.06 0.07 0.06 0.07 0.07 0.07 0.06 0.08 0.05 0.02 0.02 0.04 0.04 0.01 0.01 0.00 0.00 0.01 0.00 0.00 0.00 0.00 0.03 0.04 0.03 0.04 0.06 0.08 0.08
0.00 0.00 0.00 0.01 0.01 0.01 0.01 0.02 0.02 0.02 0.01 0.00 0.00 0.00 0.00 0.00 0.00 0.00 0.00 0.00 0.01 0.02 0.08 0.06 0.00 0.01 0.02 0.01 0.00 0.00 0.00 0.01 0.03 0.04 0.08 0.12 0.16 0.24
0.00 0.00 0.00 0.00 0.00 0.00 0.00 0.00 0.00 0.00 0.00 0.00 0.00 0.00 0.00 0.00 0.00 0.00 0.00 0.00 0.00 0.00 0.04 0.07 0.02 0.01 0.02 0.03 0.02 0.01 0.01 0.02 0.06 0.13 0.19 0.25 0.28 0.31
0.00 0.00 0.00 0.00 0.00 0.00 0.00 0.00 0.00 0.00 0.00 0.00 0.00 0.00 0.00 0.00 0.00 0.00 0.00 0.00 0.00 0.02 0.03 0.01 0.02 0.02 0.06 0.09 0.08 0.09 0.14 0.14 0.19 0.24 0.25 0.21 0.18 0.22
0.00 0.00 0.00 0.00 0.00 0.00 0.00 0.00 0.00 0.00 0.00 0.00 0.00 0.00 0.00 0.00 0.00 0.00 0.00 0.00 0.00 0.01 0.01 0.03 0.06 0.09 0.17 0.19 0.19 0.21 0.17 0.18 0.18 0.18 0.20 0.21 0.19 0.19
0.00 0.00 0.00 0.00 0.00 0.00 0.00 0.00 0.00 0.00 0.00 0.00 0.00 0.00 0.01 0.00 0.00 0.00 0.01 0.01 0.02 0.02 0.02 0.04 0.09 0.14 0.17 0.18 0.19 0.15 0.18 0.20 0.17 0.18 0.25 0.21 0.18 0.17
0.00 0.00 0.00 0.00 0.00 0.00 0.00 0.00 0.00 0.00 0.00 0.00 0.00 0.01 0.00 0.00 0.01 0.01 0.01 0.03 0.03 0.02 0.03 0.05 0.12 0.19 0.17 0.15 0.15 0.15 0.21 0.21 0.21 0.22 0.21 0.18 0.15 0.14
0.00 0.00 0.00 0.00 0.00 0.00 0.00 0.00 0.00 0.00 0.01 0.01 0.00 0.01 0.01 0.01 0.04 0.03 0.03 0.04 0.04 0.03 0.03 0.05 0.09 0.12 0.13 0.07 0.06 0.10 0.15 0.16 0.18 0.19 0.15 0.15 0.11 0.09
0.00 0.00 0.00 0.00 0.00 0.00 0.00 0.00 0.00 0.00 0.00 0.01 0.01 0.01 0.01 0.03 0.04 0.04 0.04 0.05 0.06 0.05 0.05 0.05 0.06 0.06 0.10 0.08 0.11 0.07 0.09 0.10 0.12 0.14 0.14 0.16 0.13 0.10
0.00 0.00 0.00 0.00 0.00 0.00 0.00 0.00 0.00 0.01 0.01 0.01 0.01 0.02 0.02 0.04 0.04 0.04 0.04 0.04 0.06 0.06 0.05 0.02 0.01 0.06 0.18 0.17 0.14 0.05 0.08 0.12 0.12 0.10 0.12 0.17 0.12 0.08
0.00 0.00 0.00 0.00 0.00 0.00 0.01 0.01 0.01 0.01 0.01 0.01 0.02 0.02 0.02 0.03 0.04 0.05 0.04 0.04 0.04 0.04 0.03 0.02 0.04 0.14 0.14 0.08 0.06 0.07 0.12 0.15 0.17 0.14 0.10 0.09 0.04 0.03
0.00 0.00 0.00 0.00 0.00 0.01 0.01 0.01 0.01 0.01 0.01 0.01 0.02 0.02 0.03 0.04 0.03 0.03 0.03 0.03 0.05 0.07 0.04 0.05 0.08 0.09 0.08 0.09 0.13 0.10 0.12 0.13 0.12 0.15 0.16 0.11 0.04 0.01

GFSNE_prec_precacc12_366.txt.gz
Total_Precipitation_Accumulation
0.00 0.00 0.00 0.00 0.00 0.00 0.00 0.00 0.00 0.00 0.00 0.00 0.00 0.00 0.00 0.00 0.00 0.00 0.00 0.00 0.00 0.00 0.00 0.00 0.00 0.00 0.00 0.00 0.00 0.00 0.00 0.00 0.00 0.00 0.00 0.00 0.00 0.01
0.00 0.00 0.00 0.00 0.00 0.00 0.00 0.00 0.00 0.00 0.02 0.00 0.00 0.00 0.00 0.00 0.00 0.00 0.00 0.00 0.00 0.00 0.00 0.00 0.00 0.00 0.00 0.00 0.00 0.00 0.00 0.00 0.00 0.01 0.01 0.03 0.06 0.09
0.00 0.00 0.00 0.00 0.00 0.00 0.00 0.00 0.00 0.01 0.03 0.01 0.00 0.00 0.00 0.00 0.00 0.00 0.00 0.00 0.00 0.00 0.00 0.00 0.00 0.00 0.00 0.00 0.00 0.00 0.01 0.02 0.04 0.06 0.09 0.09 0.09 0.14
0.01 0.01 0.00 0.00 0.00 0.01 0.01 0.01 0.02 0.03 0.04 0.04 0.01 0.00 0.00 0.00 0.00 0.00 0.00 0.00 0.00 0.01 0.00 0.00 0.00 0.00 0.00 0.01 0.02 0.03 0.04 0.04 0.05 0.06 0.07 0.14 0.24 0.27
0.02 0.01 0.02 0.04 0.03 0.06 0.06 0.05 0.05 0.06 0.08 0.09 0.06 0.03 0.01 0.00 0.00 0.00 0.00 0.00 0.00 0.00 0.00 0.00 0.00 0.01 0.01 0.01 0.02 0.02 0.02 0.05 0.08 0.15 0.21 0.22 0.20 0.21
0.18 0.18 0.21 0.25 0.21 0.15 0.13 0.14 0.13 0.09 0.08 0.07 0.07 0.07 0.04 0.02 0.02 0.01 0.01 0.01 0.01 0.00 0.00 0.00 0.00 0.01 0.01 0.01 0.02 0.03 0.05 0.11 0.18 0.21 0.20 0.19 0.19 0.18
0.16 0.15 0.17 0.28 0.28 0.18 0.12 0.07 0.06 0.04 0.04 0.05 0.08 0.09 0.07 0.06 0.07 0.08 0.07 0.03 0.01 0.00 0.00 0.01 0.02 0.02 0.01 0.02 0.07 0.14 0.20 0.19 0.16 0.14 0.15 0.15 0.13 0.10
0.33 0.28 0.22 0.25 0.17 0.20 0.18 0.17 0.16 0.15 0.15 0.19 0.18 0.13 0.07 0.07 0.09 0.11 0.10 0.07 0.06 0.02 0.01 0.02 0.01 0.03 0.03 0.06 0.10 0.13 0.11 0.09 0.08 0.07 0.06 0.06 0.08 0.08
0.47 0.45 0.34 0.24 0.24 0.10 0.19 0.23 0.19 0.22 0.18 0.13 0.08 0.09 0.15 0.17 0.17 0.15 0.14 0.11 0.07 0.02 0.04 0.04 0.02 0.04 0.03 0.03 0.04 0.05 0.04 0.03 0.01 0.02 0.02 0.04 0.05 0.07
0.13 0.17 0.16 0.10 0.06 0.05 0.01 0.00 0.00 0.03 0.09 0.11 0.10 0.11 0.10 0.10 0.09 0.09 0.07 0.05 0.03 0.01 0.02 0.05 0.01 0.00 0.00 0.01 0.01 0.00 0.00 0.00 0.01 0.01 0.02 0.04 0.04 0.06
0.03 0.03 0.04 0.03 0.06 0.07 0.01 0.00 0.00 0.01 0.03 0.03 0.03 0.03 0.02 0.02 0.03 0.03 0.03 0.04 0.04 0.01 0.01 0.02 0.01 0.00 0.00 0.00 0.00 0.00 0.00 0.00 0.00 0.00 0.01 0.03 0.05 0.07
0.04 0.04 0.06 0.04 0.01 0.00 0.00 0.00 0.00 0.00 0.00 0.00 0.00 0.00 0.00 0.00 0.01 0.01 0.00 0.01 0.01 0.01 0.00 0.00 0.00 0.01 0.01 0.00 0.00 0.00 0.00 0.01 0.01 0.01 0.02 0.03 0.06 0.07
0.05 0.04 0.03 0.02 0.00 0.00 0.00 0.00 0.00 0.00 0.00 0.00 0.00 0.00 0.00 0.00 0.00 0.00 0.00 0.00 0.01 0.01 0.03 0.04 0.01 0.01 0.02 0.01 0.00 0.00 0.00 0.00 0.01 0.01 0.03 0.06 0.10 0.17
0.03 0.01 0.00 0.00 0.00 0.00 0.00 0.00 0.00 0.00 0.00 0.00 0.00 0.00 0.00 0.00 0.00 0.00 0.00 0.00 0.00 0.00 0.01 0.03 0.02 0.03 0.05 0.05 0.02 0.00 0.00 0.01 0.02 0.03 0.06 0.12 0.19 0.21
0.00 0.00 0.00 0.00 0.00 0.00 0.00 0.00 0.00 0.00 0.00 0.00 0.00 0.00 0.00 0.00 0.00 0.00 0.00 0.00 0.00 0.00 0.00 0.00 0.01 0.02 0.05 0.07 0.05 0.02 0.03 0.03 0.04 0.06 0.08 0.10 0.08 0.09
0.00 0.00 0.00 0.00 0.00 0.00 0.00 0.00 0.00 0.00 0.00 0.00 0.00 0.00 0.00 0.00 0.00 0.00 0.00 0.00 0.00 0.00 0.00 0.00 0.00 0.02 0.04 0.03 0.03 0.03 0.02 0.01 0.01 0.01 0.04 0.07 0.08 0.10
0.00 0.00 0.00 0.00 0.00 0.00 0.00 0.00 0.00 0.00 0.00 0.00 0.00 0.00 0.00 0.00 0.00 0.00 0.00 0.00 0.00 0.00 0.00 0.00 0.00 0.01 0.02 0.03 0.04 0.02 0.02 0.02 0.01 0.03 0.08 0.07 0.07 0.09
0.00 0.00 0.00 0.00 0.00 0.00 0.00 0.00 0.00 0.00 0.00 0.00 0.00 0.00 0.00 0.00 0.00 0.00 0.00 0.01 0.01 0.00 0.01 0.00 0.00 0.01 0.01 0.00 0.01 0.01 0.01 0.02 0.02 0.05 0.07 0.08 0.05 0.07
0.00 0.00 0.00 0.00 0.00 0.00 0.00 0.00 0.00 0.00 0.00 0.00 0.00 0.00 0.00 0.00 0.01 0.01 0.00 0.00 0.01 0.01 0.01 0.00 0.01 0.03 0.06 0.01 0.00 0.00 0.01 0.01 0.03 0.06 0.04 0.06 0.05 0.04
0.00 0.00 0.00 0.00 0.00 0.00 0.00 0.00 0.00 0.00 0.00 0.00 0.00 0.00 0.00 0.01 0.01 0.01 0.01 0.02 0.02 0.02 0.01 0.00 0.00 0.01 0.09 0.08 0.09 0.01 0.00 0.02 0.04 0.05 0.04 0.07 0.07 0.06
0.00 0.00 0.00 0.00 0.00 0.00 0.00 0.00 0.00 0.00 0.00 0.00 0.00 0.00 0.00 0.01 0.01 0.01 0.01 0.01 0.01 0.01 0.02 0.00 0.00 0.00 0.06 0.08 0.07 0.01 0.00 0.02 0.04 0.06 0.08 0.12 0.07 0.05
0.00 0.00 0.00 0.00 0.00 0.00 0.00 0.00 0.00 0.00 0.00 0.00 0.00 0.00 0.00 0.00 0.01 0.01 0.01 0.01 0.01 0.01 0.02 0.00 0.00 0.01 0.05 0.05 0.04 0.02 0.01 0.03 0.06 0.07 0.08 0.10 0.06 0.05
0.00 0.00 0.00 0.00 0.00 0.00 0.00 0.00 0.01 0.00 0.00 0.00 0.00 0.00 0.01 0.01 0.01 0.01 0.01 0.01 0.02 0.02 0.01 0.02 0.00 0.01 0.02 0.03 0.05 0.04 0.02 0.04 0.05 0.07 0.09 0.08 0.05 0.02

GFSNE_prec_precacc12_369.txt.gz
Total_Precipitation_Accumulation
0.00 0.00 0.00 0.00 0.00 0.00 0.00 0.00 0.00 0.00 0.00 0.00 0.00 0.00 0.00 0.00 0.00 0.00 0.00 0.00 0.00 0.00 0.00 0.00 0.00 0.00 0.00 0.00 0.00 0.00 0.00 0.00 0.00 0.00 0.00 0.00 0.01 0.02
0.00 0.00 0.00 0.00 0.00 0.00 0.00 0.00 0.00 0.00 0.02 0.00 0.00 0.00 0.00 0.00 0.00 0.00 0.00 0.00 0.00 0.00 0.00 0.00 0.00 0.00 0.00 0.00 0.00 0.00 0.00 0.00 0.01 0.01 0.02 0.04 0.06 0.09
0.00 0.00 0.00 0.00 0.00 0.00 0.00 0.00 0.00 0.01 0.02 0.01 0.00 0.00 0.00 0.00 0.00 0.00 0.00 0.00 0.00 0.00 0.00 0.00 0.00 0.00 0.00 0.00 0.00 0.00 0.01 0.02 0.04 0.06 0.08 0.07 0.08 0.12
0.00 0.00 0.00 0.00 0.00 0.01 0.01 0.01 0.02 0.03 0.03 0.02 0.01 0.00 0.00 0.00 0.00 0.00 0.00 0.00 0.00 0.01 0.00 0.00 0.00 0.00 0.00 0.01 0.02 0.03 0.04 0.04 0.03 0.02 0.04 0.11 0.21 0.26
0.01 0.01 0.01 0.02 0.02 0.05 0.04 0.04 0.04 0.05 0.07 0.08 0.05 0.03 0.01 0.00 0.00 0.00 0.00 0.00 0.00 0.00 0.00 0.00 0.00 0.00 0.01 0.01 0.02 0.02 0.02 0.01 0.02 0.08 0.16 0.21 0.19 0.21
0.16 0.16 0.19 0.23 0.19 0.13 0.12 0.15 0.17 0.17 0.15 0.13 0.09 0.09 0.05 0.02 0.02 0.01 0.00 0.00 0.01 0.00 0.00 0.00 0.00 0.01 0.01 0.01 0.02 0.02 0.03 0.07 0.11 0.16 0.19 0.18 0.18 0.17
0.16 0.12 0.14 0.23 0.26 0.26 0.27 0.25 0.24 0.20 0.15 0.11 0.08 0.08 0.06 0.05 0.04 0.03 0.02 0.01 0.00 0.00 0.00 0.00 0.01 0.01 0.01 0.00 0.01 0.05 0.08 0.10 0.11 0.13 0.13 0.13 0.11 0.09
0.32 0.29 0.28 0.31 0.28 0.31 0.30 0.29 0.25 0.19 0.16 0.16 0.12 0.07 0.03 0.03 0.04 0.05 0.06 0.03 0.02 0.00 0.00 0.00 0.00 0.00 0.00 0.00 0.00 0.01 0.02 0.04 0.06 0.05 0.04 0.05 0.05 0.05
0.41 0.45 0.44 0.39 0.36 0.22 0.29 0.31 0.23 0.19 0.12 0.04 0.01 0.00 0.01 0.02 0.02 0.02 0.04 0.04 0.03 0.00 0.00 0.00 0.00 0.00 0.00 0.00 0.00 0.03 0.03 0.02 0.01 0.01 0.01 0.02 0.03 0.04
0.13 0.17 0.18 0.14 0.11 0.09 0.05 0.04 0.04 0.03 0.02 0.03 0.03 0.01 0.00 0.01 0.02 0.02 0.01 0.01 0.00 0.00 0.00 0.00 0.00 0.00 0.00 0.00 0.00 0.00 0.00 0.00 0.00 0.00 0.00 0.01 0.02 0.03
0.05 0.05 0.07 0.05 0.11 0.13 0.08 0.07 0.07 0.06 0.06 0.03 0.01 0.00 0.00 0.00 0.00 0.00 0.00 0.00 0.00 0.00 0.00 0.00 0.00 0.00 0.00 0.00 0.00 0.00 0.00 0.00 0.00 0.00 0.00 0.00 0.02 0.04
0.10 0.12 0.18 0.14 0.17 0.15 0.13 0.11 0.10 0.08 0.04 0.00 0.00 0.00 0.00 0.00 0.00 0.00 0.00 0.00 0.01 0.00 0.00 0.00 0.00 0.01 0.01 0.00 0.00 0.00 0.00 0.00 0.00 0.00 0.00 0.01 0.03 0.03
0.14 0.11 0.09 0.10 0.08 0.06 0.05 0.04 0.02 0.00 0.00 0.00 0.00 0.00 0.00 0.00 0.00 0.00 0.00 0.00 0.00 0.00 0.01 0.02 0.01 0.01 0.02 0.01 0.00 0.00 0.00 0.00 0.00 0.00 0.01 0.02 0.03 0.07
0.15 0.09 0.07 0.06 0.02 0.01 0.00 0.00 0.00 0.00 0.00 0.00 0.00 0.00 0.00 0.00 0.00 0.00 0.00 0.00 0.00 0.00 0.00 0.01 0.02 0.02 0.04 0.03 0.01 0.00 0.00 0.00 0.00 0.00 0.00 0.01 0.03 0.07
0.04 0.02 0.00 0.00 0.00 0.00 0.00 0.00 0.00 0.00 0.00 0.00 0.00 0.00 0.00 0.00 0.00 0.00 0.00 0.00 0.00 0.00 0.00 0.00 0.00 0.01 0.03 0.04 0.02 0.01 0.00 0.00 0.00 0.00 0.00 0.00 0.01 0.03
0.00 0.00 0.00 0.00 0.00 0.00 0.00 0.00 0.00 0.00 0.00 0.00 0.00 0.00 0.00 0.00 0.00 0.00 0.00 0.00 0.00 0.00 0.00 0.00 0.00 0.01 0.02 0.01 0.01 0.01 0.00 0.01 0.00 0.00 0.00 0.01 0.02 0.03
0.00 0.00 0.00 0.00 0.00 0.00 0.00 0.00 0.00 0.00 0.00 0.00 0.00 0.00 0.00 0.00 0.00 0.00 0.00 0.00 0.00 0.00 0.00 0.00 0.00 0.00 0.00 0.00 0.01 0.00 0.01 0.00 0.00 0.01 0.04 0.02 0.01 0.02
0.00 0.00 0.00 0.00 0.00 0.00 0.00 0.00 0.00 0.00 0.00 0.00 0.00 0.00 0.00 0.00 0.00 0.00 0.00 0.00 0.00 0.00 0.00 0.00 0.00 0.00 0.00 0.00 0.00 0.00 0.00 0.01 0.00 0.02 0.03 0.05 0.01 0.01
0.00 0.00 0.00 0.00 0.00 0.00 0.00 0.00 0.00 0.00 0.00 0.00 0.00 0.00 0.00 0.00 0.00 0.00 0.00 0.00 0.00 0.00 0.00 0.00 0.00 0.01 0.04 0.01 0.00 0.00 0.00 0.00 0.01 0.02 0.02 0.04 0.03 0.01
0.00 0.00 0.00 0.00 0.00 0.00 0.00 0.00 0.00 0.00 0.00 0.00 0.00 0.00 0.00 0.01 0.01 0.00 0.00 0.01 0.01 0.01 0.00 0.00 0.00 0.00 0.06 0.07 0.08 0.01 0.00 0.00 0.02 0.03 0.02 0.04 0.03 0.02
0.00 0.00 0.00 0.00 0.00 0.00 0.00 0.00 0.00 0.00 0.00 0.00 0.00 0.00 0.00 0.00 0.00 0.00 0.00 0.01 0.01 0.01 0.01 0.00 0.00 0.00 0.02 0.05 0.05 0.00 0.00 0.00 0.01 0.04 0.06 0.08 0.04 0.02
0.00 0.00 0.00 0.00 0.00 0.00 0.00 0.00 0.00 0.00 0.00 0.00 0.00 0.00 0.00 0.00 0.01 0.01 0.01 0.01 0.01 0.01 0.01 0.00 0.00 0.00 0.01 0.03 0.03 0.01 0.00 0.00 0.00 0.02 0.05 0.08 0.08 0.07
0.00 0.00 0.00 0.00 0.00 0.00 0.00 0.00 0.00 0.00 0.00 0.00 0.00 0.00 0.00 0.00 0.00 0.01 0.01 0.01 0.02 0.01 0.01 0.01 0.00 0.00 0.00 0.02 0.03 0.03 0.01 0.00 0.01 0.02 0.02 0.03 0.04 0.02

GFSNE_prec_precacc12_372.txt.gz
Total_Precipitation_Accumulation
0.00 0.00 0.00 0.00 0.00 0.00 0.00 0.00 0.00 0.00 0.00 0.00 0.00 0.00 0.00 0.00 0.00 0.00 0.00 0.00 0.00 0.00 0.00 0.00 0.00 0.00 0.00 0.00 0.00 0.00 0.00 0.00 0.00 0.00 0.01 0.01 0.02 0.03
0.00 0.00 0.00 0.00 0.00 0.00 0.00 0.00 0.00 0.00 0.01 0.00 0.00 0.00 0.00 0.00 0.00 0.00 0.00 0.00 0.00 0.00 0.00 0.00 0.00 0.00 0.00 0.00 0.00 0.00 0.00 0.00 0.01 0.01 0.02 0.04 0.06 0.08
0.00 0.00 0.00 0.00 0.00 0.00 0.00 0.00 0.00 0.00 0.01 0.00 0.00 0.00 0.00 0.00 0.00 0.00 0.00 0.00 0.00 0.01 0.00 0.00 0.00 0.00 0.00 0.00 0.00 0.00 0.01 0.02 0.03 0.05 0.07 0.06 0.05 0.07
0.00 0.00 0.00 0.00 0.00 0.00 0.00 0.00 0.01 0.02 0.02 0.02 0.00 0.00 0.00 0.00 0.00 0.00 0.00 0.00 0.00 0.01 0.00 0.00 0.00 0.00 0.00 0.00 0.00 0.01 0.02 0.02 0.02 0.02 0.01 0.04 0.10 0.14
0.01 0.00 0.00 0.01 0.02 0.03 0.02 0.02 0.02 0.02 0.04 0.06 0.05 0.03 0.01 0.00 0.00 0.00 0.00 0.00 0.00 0.00 0.00 0.00 0.00 0.00 0.00 0.00 0.00 0.01 0.01 0.00 0.00 0.00 0.02 0.04 0.07 0.10
0.10 0.12 0.15 0.20 0.18 0.12 0.11 0.14 0.15 0.16 0.16 0.20 0.22 0.20 0.10 0.04 0.02 0.01 0.00 0.00 0.00 0.00 0.00 0.00 0.00 0.00 0.00 0.00 0.00 0.00 0.00 0.00 0.00 0.00 0.01 0.03 0.05 0.05
0.11 0.10 0.11 0.19 0.23 0.24 0.26 0.27 0.31 0.38 0.40 0.33 0.23 0.13 0.06 0.03 0.02 0.02 0.00 0.00 0.00 0.00 0.00 0.00 0.00 0.00 0.00 0.00 0.00 0.00 0.00 0.00 0.01 0.01 0.01 0.03 0.03 0.03
0.18 0.19 0.22 0.23 0.19 0.26 0.29 0.28 0.25 0.24 0.21 0.19 0.16 0.09 0.04 0.02 0.01 0.00 0.00 0.00 0.00 0.00 0.00 0.00 0.00 0.00 0.00 0.00 0.00 0.00 0.00 0.00 0.00 0.00 0.01 0.01 0.02 0.02
0.37 0.38 0.35 0.32 0.29 0.18 0.24 0.23 0.17 0.14 0.09 0.04 0.03 0.04 0.05 0.05 0.03 0.01 0.01 0.00 0.00 0.00 0.00 0.00 0.00 0.00 0.00 0.00 0.00 0.00 0.00 0.00 0.00 0.00 0.00 0.00 0.01 0.01
0.13 0.17 0.17 0.14 0.12 0.10 0.05 0.04 0.04 0.05 0.09 0.12 0.15 0.16 0.12 0.11 0.07 0.03 0.01 0.00 0.00 0.00 0.00 0.00 0.00 0.00 0.00 0.00 0.00 0.00 0.00 0.00 0.00 0.00 0.00 0.00 0.00 0.01
0.12 0.11 0.12 0.07 0.16 0.17 0.11 0.12 0.15 0.16 0.15 0.11 0.10 0.13 0.12 0.06 0.01 0.00 0.00 0.00 0.00 0.00 0.00 0.00 0.00 0.00 0.00 0.00 0.00 0.00 0.00 0.00 0.00 0.00 0.00 0.00 0.01 0.01
0.12 0.14 0.26 0.19 0.24 0.23 0.19 0.18 0.16 0.14 0.11 0.08 0.04 0.01 0.00 0.00 0.00 0.00 0.00 0.00 0.00 0.00 0.00 0.00 0.00 0.00 0.01 0.00 0.00 0.00 0.00 0.00 0.00 0.00 0.00 0.00 0.01 0.01
0.20 0.22 0.25 0.31 0.28 0.25 0.21 0.15 0.06 0.01 0.00 0.00 0.00 0.00 0.00 0.00 0.00 0.00 0.00 0.00 0.00 0.00 0.00 0.01 0.01 0.01 0.01 0.01 0.00 0.00 0.00 0.00 0.00 0.00 0.00 0.00 0.00 0.01
0.37 0.38 0.37 0.33 0.21 0.10 0.03 0.01 0.00 0.00 0.00 0.00 0.00 0.00 0.00 0.00 0.00 0.00 0.00 0.00 0.00 0.00 0.00 0.00 0.01 0.02 0.03 0.02 0.00 0.00 0.00 0.00 0.00 0.00 0.00 0.00 0.00 0.00
0.18 0.13 0.08 0.03 0.01 0.00 0.00 0.00 0.00 0.00 0.00 0.00 0.00 0.00 0.00 0.00 0.00 0.00 0.00 0.00 0.00 0.00 0.00 0.00 0.00 0.01 0.02 0.03 0.02 0.00 0.00 0.00 0.00 0.00 0.00 0.00 0.00 0.00
0.05 0.01 0.00 0.00 0.00 0.00 0.00 0.00 0.00 0.00 0.00 0.00 0.00 0.00 0.00 0.00 0.00 0.00 0.00 0.00 0.00 0.00 0.00 0.00 0.00 0.00 0.01 0.01 0.01 0.00 0.00 0.01 0.00 0.00 0.00 0.00 0.00 0.00
0.00 0.00 0.00 0.00 0.00 0.00 0.00 0.00 0.00 0.00 0.00 0.00 0.00 0.00 0.00 0.00 0.00 0.00 0.00 0.00 0.00 0.00 0.00 0.00 0.00 0.00 0.00 0.00 0.00 0.00 0.00 0.00 0.00 0.00 0.01 0.01 0.00 0.00
0.00 0.00 0.00 0.00 0.00 0.00 0.00 0.00 0.00 0.00 0.00 0.00 0.00 0.00 0.00 0.00 0.00 0.00 0.00 0.00 0.00 0.00 0.00 0.00 0.00 0.00 0.00 0.00 0.00 0.00 0.00 0.00 0.00 0.00 0.01 0.03 0.01 0.00
0.00 0.00 0.00 0.00 0.00 0.00 0.00 0.00 0.00 0.00 0.00 0.00 0.00 0.00 0.00 0.00 0.00 0.00 0.00 0.00 0.00 0.00 0.00 0.00 0.00 0.01 0.03 0.01 0.00 0.00 0.00 0.00 0.01 0.01 0.01 0.02 0.03 0.00
0.00 0.00 0.00 0.00 0.00 0.00 0.00 0.00 0.00 0.00 0.00 0.00 0.00 0.00 0.00 0.00 0.00 0.00 0.00 0.00 0.01 0.01 0.00 0.00 0.00 0.00 0.05 0.05 0.06 0.01 0.00 0.00 0.01 0.02 0.01 0.01 0.01 0.00
0.00 0.00 0.00 0.00 0.00 0.00 0.00 0.00 0.00 0.00 0.00 0.00 0.00 0.00 0.00 0.00 0.00 0.00 0.00 0.00 0.01 0.01 0.01 0.00 0.00 0.00 0.01 0.02 0.03 0.00 0.00 0.00 0.00 0.02 0.04 0.06 0.03 0.01
0.00 0.00 0.00 0.00 0.00 0.00 0.00 0.00 0.00 0.00 0.00 0.00 0.00 0.00 0.00 0.00 0.00 0.00 0.00 0.01 0.01 0.01 0.01 0.00 0.00 0.00 0.00 0.02 0.02 0.01 0.00 0.00 0.00 0.00 0.02 0.05 0.10 0.11
0.00 0.00 0.00 0.00 0.00 0.00 0.00 0.00 0.00 0.00 0.00 0.00 0.00 0.00 0.00 0.00 0.00 0.00 0.01 0.01 0.01 0.01 0.00 0.01 0.00 0.00 0.00 0.01 0.02 0.01 0.00 0.00 0.00 0.00 0.00 0.01 0.02 0.02

GFSNE_prec_precacc12_375.txt.gz
Total_Precipitation_Accumulation
0.00 0.00 0.00 0.00 0.00 0.00 0.00 0.00 0.00 0.00 0.00 0.00 0.00 0.00 0.00 0.00 0.00 0.00 0.00 0.00 0.00 0.00 0.00 0.00 0.00 0.00 0.00 0.00 0.00 0.00 0.00 0.00 0.01 0.01 0.01 0.02 0.03 0.04
0.00 0.00 0.00 0.00 0.00 0.00 0.00 0.00 0.00 0.00 0.00 0.00 0.00 0.00 0.00 0.00 0.00 0.00 0.00 0.00 0.00 0.00 0.00 0.00 0.00 0.00 0.00 0.00 0.00 0.00 0.00 0.00 0.01 0.01 0.01 0.03 0.06 0.08
0.00 0.00 0.00 0.00 0.00 0.00 0.00 0.00 0.00 0.00 0.00 0.00 0.00 0.00 0.00 0.00 0.00 0.00 0.00 0.00 0.00 0.01 0.00 0.00 0.00 0.00 0.00 0.00 0.00 0.00 0.01 0.01 0.01 0.02 0.04 0.03 0.03 0.03
0.00 0.00 0.00 0.00 0.00 0.00 0.00 0.00 0.00 0.00 0.01 0.01 0.00 0.00 0.00 0.00 0.00 0.00 0.00 0.00 0.00 0.01 0.00 0.00 0.00 0.00 0.00 0.00 0.00 0.00 0.00 0.00 0.00 0.00 0.00 0.00 0.01 0.02
0.00 0.00 0.00 0.00 0.00 0.01 0.01 0.01 0.01 0.01 0.02 0.03 0.04 0.02 0.01 0.01 0.00 0.01 0.02 0.02 0.02 0.01 0.00 0.00 0.00 0.00 0.00 0.00 0.00 0.00 0.00 0.00 0.00 0.00 0.00 0.00 0.00 0.01
0.04 0.02 0.01 0.03 0.06 0.08 0.10 0.12 0.13 0.14 0.16 0.19 0.21 0.21 0.13 0.07 0.03 0.02 0.01 0.01 0.01 0.01 0.00 0.00 0.00 0.00 0.00 0.00 0.00 0.00 0.00 0.00 0.01 0.00 0.00 0.00 0.00 0.00
0.06 0.06 0.08 0.14 0.18 0.20 0.23 0.25 0.30 0.38 0.42 0.38 0.28 0.17 0.11 0.05 0.02 0.01 0.01 0.01 0.01 0.01 0.01 0.01 0.00 0.00 0.00 0.00 0.00 0.00 0.00 0.01 0.00 0.00 0.00 0.00 0.00 0.00
0.13 0.16 0.18 0.18 0.17 0.21 0.24 0.26 0.24 0.23 0.20 0.17 0.15 0.09 0.05 0.04 0.03 0.03 0.03 0.04 0.07 0.10 0.05 0.00 0.00 0.00 0.00 0.00 0.00 0.00 0.00 0.00 0.00 0.00 0.00 0.00 0.00 0.00
0.33 0.35 0.32 0.30 0.27 0.17 0.20 0.18 0.16 0.15 0.09 0.06 0.05 0.07 0.09 0.09 0.09 0.09 0.13 0.15 0.11 0.03 0.00 0.00 0.00 0.00 0.00 0.00 0.00 0.00 0.00 0.00 0.00 0.00 0.00 0.00 0.00 0.00
0.09 0.15 0.16 0.14 0.14 0.12 0.06 0.07 0.07 0.07 0.12 0.16 0.19 0.21 0.18 0.16 0.17 0.15 0.08 0.02 0.00 0.00 0.00 0.00 0.00 0.00 0.00 0.00 0.00 0.00 0.00 0.00 0.00 0.00 0.00 0.00 0.00 0.01
0.20 0.23 0.27 0.24 0.41 0.36 0.22 0.20 0.21 0.21 0.24 0.22 0.21 0.22 0.19 0.11 0.03 0.00 0.00 0.00 0.00 0.00 0.00 0.00 0.00 0.00 0.00 0.00 0.00 0.00 0.00 0.00 0.00 0.00 0.00 0.00 0.01 0.01
0.16 0.18 0.35 0.27 0.34 0.31 0.24 0.24 0.29 0.31 0.32 0.28 0.16 0.05 0.01 0.00 0.00 0.00 0.00 0.00 0.00 0.00 0.00 0.00 0.00 0.00 0.00 0.00 0.00 0.00 0.00 0.00 0.00 0.00 0.00 0.00 0.01 0.00
0.35 0.39 0.42 0.56 0.49 0.51 0.46 0.39 0.33 0.24 0.15 0.06 0.01 0.00 0.00 0.00 0.00 0.00 0.00 0.00 0.00 0.00 0.00 0.00 0.01 0.00 0.01 0.01 0.00 0.00 0.00 0.00 0.00 0.00 0.00 0.00 0.00 0.00
0.69 0.74 0.76 0.76 0.61 0.41 0.25 0.16 0.08 0.03 0.01 0.00 0.00 0.00 0.00 0.00 0.00 0.00 0.00 0.00 0.00 0.00 0.00 0.00 0.01 0.01 0.02 0.01 0.00 0.00 0.00 0.00 0.00 0.00 0.00 0.00 0.00 0.00
0.64 0.56 0.47 0.33 0.19 0.09 0.06 0.02 0.00 0.00 0.00 0.00 0.00 0.00 0.00 0.00 0.00 0.00 0.00 0.00 0.00 0.00 0.00 0.00 0.00 0.01 0.01 0.02 0.01 0.00 0.00 0.00 0.00 0.00 0.00 0.00 0.00 0.00
0.32 0.20 0.13 0.07 0.04 0.02 0.00 0.00 0.00 0.00 0.00 0.00 0.00 0.00 0.00 0.00 0.00 0.00 0.00 0.00 0.00 0.00 0.00 0.00 0.00 0.00 0.00 0.00 0.00 0.00 0.00 0.00 0.00 0.00 0.00 0.00 0.00 0.00
0.05 0.03 0.01 0.00 0.00 0.00 0.00 0.00 0.00 0.00 0.00 0.00 0.00 0.00 0.00 0.00 0.00 0.00 0.00 0.00 0.00 0.00 0.00 0.00 0.00 0.00 0.00 0.00 0.00 0.00 0.00 0.00 0.00 0.00 0.00 0.01 0.00 0.00
0.05 0.02 0.00 0.00 0.00 0.00 0.00 0.00 0.00 0.00 0.00 0.00 0.00 0.00 0.00 0.00 0.00 0.00 0.00 0.00 0.00 0.00 0.00 0.00 0.00 0.00 0.00 0.00 0.00 0.00 0.00 0.00 0.00 0.00 0.01 0.03 0.01 0.00
0.02 0.01 0.00 0.00 0.00 0.00 0.00 0.00 0.00 0.00 0.00 0.00 0.00 0.00 0.00 0.00 0.00 0.00 0.00 0.00 0.00 0.00 0.00 0.00 0.00 0.01 0.02 0.01 0.00 0.00 0.00 0.00 0.01 0.01 0.01 0.02 0.03 0.00
0.00 0.00 0.00 0.00 0.00 0.00 0.00 0.00 0.00 0.00 0.00 0.00 0.00 0.00 0.00 0.00 0.00 0.00 0.00 0.00 0.00 0.01 0.00 0.00 0.00 0.01 0.04 0.04 0.04 0.01 0.00 0.00 0.00 0.02 0.01 0.01 0.00 0.00
0.00 0.00 0.00 0.00 0.00 0.00 0.00 0.00 0.00 0.00 0.00 0.00 0.00 0.00 0.00 0.00 0.00 0.00 0.00 0.00 0.00 0.01 0.01 0.00 0.00 0.00 0.01 0.01 0.02 0.00 0.00 0.00 0.00 0.01 0.02 0.06 0.03 0.00
0.00 0.00 0.00 0.00 0.00 0.00 0.00 0.00 0.00 0.00 0.00 0.00 0.00 0.00 0.00 0.00 0.00 0.00 0.00 0.01 0.01 0.00 0.00 0.00 0.00 0.00 0.00 0.02 0.02 0.01 0.00 0.00 0.00 0.00 0.00 0.03 0.10 0.14
0.00 0.00 0.00 0.00 0.00 0.00 0.00 0.00 0.00 0.00 0.00 0.00 0.00 0.00 0.00 0.00 0.00 0.00 0.00 0.00 0.01 0.01 0.00 0.01 0.00 0.00 0.00 0.01 0.01 0.01 0.00 0.00 0.00 0.00 0.00 0.00 0.00 0.01